Location: Waco, TX
(31.5480°N, 97.1670°W)
Time: 17:30:47
(UTC-05:00)

ISS - Pass Details

Date: 18 September 2018
Orbit: 403 x 408 km, 51.6° (Epoch: 23 September)

Event Time Altitude Azimuth Distance (km) Brightness Sun altitude
Rises 06:19:52 0° 307° (NW) 2,319 - -12.4°
Reaches altitude 10° 06:22:01 10° 300° (WNW) 1,455 - -12.0°
Exits shadow 06:22:43 15° 295° (WNW) 1,185 -2.0 -11.8°
Maximum altitude 06:25:05 40° 229° (SW) 607 -3.4 -11.3°
Drops below altitude 10° 06:28:09 10° 158° (SSE) 1,445 -0.9 -10.7°
Sets 06:30:17 0° 151° (SSE) 2,300 0.3 -10.2°
